Content
SEND FEEDBACK

Daily
Averages
Monthly
Summary
Mongolia

ULAANBAATAR, MONGOLIA


Home > Asia > Mongolia
Elevation: 4316 feet     Latitude: 47 56N     Longitude: 106 59E

WEATHER
 
SELECT A DAY
Number of Records: 248,003;   Date Range: 10/10/97 - 10/19/14
 
SHARE

PRINT THIS DATA

[ ← Previous Day ]
WEATHER ALMANAC - FEBRUARY 13, 2013
[ Next Day → ]
[ °C ]   °F
Weather ElementAverageHighLow
Temperature-11.9 °F2 °F (5:00 pm)-29.2 °F (8:00 am)
Dewpoint-17.9 °F-5.8 °F (2:30 pm)-36.4 °F (8:00 am)
Humidity72.6 %84 % (11:30 am)46 % (5:00 pm)
Barometer30.16 in30.75 in (11:00 pm)29.95 in (1:00 am)
Wind Speed2.6 mph6.7 mph (1:00 am)
Weather ElementAverage
Visibility4.4 mi
Wind DirectionENE (76.3 °)

Weather ElementTotal
Precipitation---
Heating Degree Days78.6 (Base 65)
Averaged from 48 records on February 13, 2013
WEATHER CONDITIONS BREAKOUT
WIND DIRECTION BREAKOUT
WEATHER BY HOUR - FEBRUARY 13, 2013
[ °C ]   °F
Local TimeTemperatureDewpointHumidityBarometerVisibilityWind DirectionWind SpeedGust SpeedPrecipitationEventsConditions
1:00 AM-18.4 °F-23.8 °F76 %29.95 inSouth (170°)6.7 mphClear
2:00 AM-3.0 °F-10.0 °F61 %30.51 inNNE (30°)4.5 mphSmoke
2:00 AM-16.6 °F-23.8 °F70 %29.95 inVariable2.2 mphClear
3:00 AM-20.2 °F-25.6 °F76 %29.98 inSSE (160°)4.5 mphClear
4:00 AM-22.0 °F-27.4 °F76 %29.98 inVariable2.2 mphClear
5:00 AM-23.8 °F-29.2 °F76 %29.98 in3.7 miVariable2.2 mph
5:00 AM-11.0 °F-17.0 °F64 %30.64 inCalmSmoke
5:30 AM-23.8 °F-29.2 °F76 %30.01 in3.7 miCalm
6:00 AM-25.6 °F-32.8 °F69 %30.01 in3.1 miESE (110°)4.5 mphSmoke
6:30 AM-25.6 °F-31.0 °F76 %30.01 in3.1 miVariable2.2 mphSmoke
7:00 AM-23.8 °F-29.2 °F76 %30.04 in3.1 miVariable2.2 mphSmoke
7:30 AM-23.8 °F-31.0 °F69 %30.04 in3.1 miVariable2.2 mphSmoke
8:00 AM-29.2 °F-36.4 °F68 %30.04 in2.5 miVariable2.2 mphSmoke
8:00 AM-13.0 °F-19.0 °F64 %30.71 in0.0 miCalmSmoke
8:30 AM-29.2 °F-34.6 °F75 %30.06 in1.2 miVariable2.2 mphMist
9:00 AM-25.6 °F-31.0 °F76 %30.06 in0.6 miVariable2.2 mphFogFog
9:30 AM-22.0 °F-29.2 °F69 %30.09 in0.9 miCalmMist
10:00 AM-18.4 °F-25.6 °F70 %30.09 in1.9 miCalmSmoke
10:30 AM-16.6 °F-22.0 °F76 %30.09 in1.9 miVariable2.2 mphSmoke
11:00 AM-6.0 °F-15.0 °F48 %30.67 in1.0 miESE (120°)2.2 mphSmoke
11:00 AM-18.4 °F-23.8 °F76 %30.09 in1.9 miVariable2.2 mphSmoke
11:30 AM-9.4 °F-13.0 °F84 %30.09 in1.9 miCalmSmoke
12:00 PM-7.6 °F-11.2 °F84 %30.09 in1.9 miCalmSmoke
12:30 PM-4.0 °F-9.4 °F78 %30.09 in1.9 miCalmSmoke
1:00 PM-4.0 °F-9.4 °F78 %30.09 in1.9 miCalmSmoke
1:30 PM-4.0 °F-9.4 °F78 %30.06 in1.9 miCalmSmoke
2:00 PM0.0 °F-7.0 °F58 %30.58 in2.0 miSW (220°)4.5 mphSmoke
2:00 PM-2.2 °F-7.6 °F78 %30.06 in2.5 miCalmSmoke
2:30 PM-0.4 °F-5.8 °F78 %30.06 in5.0 miCalm
3:00 PM-0.4 °F-5.8 °F78 %30.06 inVariable2.2 mphClear
3:30 PM1.4 °F-5.8 °F72 %30.06 inVariable2.2 mphClear
4:00 PM-0.4 °F-7.6 °F72 %30.06 inWSW (250°)4.5 mphClear
4:30 PM1.4 °F-7.6 °F66 %30.06 in6.2 miVariable2.2 mphScattered Clouds
5:00 PM2.0 °F-8.0 °F46 %30.56 in31.0 miWSW (240°)6.7 mphPartly Cloudy
5:00 PM-0.4 °F-7.6 °F72 %30.06 in6.2 miSSW (210°)4.5 mphScattered Clouds
5:30 PM-2.2 °F-9.4 °F71 %30.06 in6.2 miSSW (200°)4.5 mphScattered Clouds
6:00 PM-4.0 °F-11.2 °F71 %30.06 in6.2 miSouth (180°)4.5 mphScattered Clouds
6:30 PM-7.6 °F-13.0 °F77 %30.09 in6.2 miSouth (190°)4.5 mphScattered Clouds
7:00 PM-9.4 °F-13.0 °F84 %30.09 in6.2 miSouth (190°)4.5 mphScattered Clouds
7:30 PM-9.4 °F-14.8 °F77 %30.09 in6.2 miSSW (200°)4.5 mphScattered Clouds
8:00 PM-6.0 °F-11.0 °F69 %30.69 inWSW (240°)6.7 mphSmoke
8:00 PM-9.4 °F-14.8 °F77 %30.12 in6.2 miSSW (200°)6.7 mphScattered Clouds
8:30 PM-9.4 °F-14.8 °F77 %30.12 in6.2 miCalmScattered Clouds
9:00 PM-13.0 °F-18.4 °F77 %30.12 in6.2 miVariable2.2 mphScattered Clouds
9:30 PM-16.6 °F-22.0 °F76 %30.12 in6.2 miSouth (180°)4.5 mphScattered Clouds
10:00 PM-14.8 °F-20.2 °F77 %30.12 in6.2 miSSE (160°)4.5 mphScattered Clouds
11:00 PM-9.0 °F-14.0 °F68 %30.75 inWest (260°)2.2 mphSmoke
11:00 PM-16.6 °F-22.0 °F76 %30.12 in6.2 miCalmIce Crystals
Hourly data recorded from ZMUB, located miles away from Ulaanbaatar, Mongolia







STORIES FROM OUR PARTNERS